Location: St. Louis
(38.6270°N, 90.1994°W)
Time: 01:56:37
(UTC-06:00)

Courier 1B Rocket - Pass Details

Date: 04 December 2021
Orbit: 920 x 1202 km, 28.2° (Epoch: 16 January)

Event Time Altitude Azimuth Distance (km) Brightness Sun altitude
Rises 04:09:52 0° 254° (WSW) 3,556 - -33.1°
Reaches altitude 10° 04:14:55 10° 220° (SW) 2,642 - -32.1°
Maximum altitude 04:16:25 11° 206° (SSW) 2,593 - -31.8°
Drops below altitude 10° 04:17:56 10° 192° (SSW) 2,670 - -31.5°
Exits shadow 04:18:31 - 187° (S) 2,733 7.3 -31.4°
Sets 04:23:10 0° 157° (SSE) 3,682 8.4 -30.5°
